Data supplied by UK-AIR on 19/5/2021
All Data GMT hour ending 
Status: R =Ratified P=Provisional,P*=As supplied
,,Belfast Stockman's Lane,,,,,,,,,,,,,,,,,,,,,,,
Date,time,"PM<sub>10</sub> particulate matter (Hourly measured)",status,unit,"Nitric oxide",status,unit,"Nitrogen dioxide",status,unit,"Nitrogen oxides as nitrogen dioxide",status,unit
 
01-01-2020,01:00,57.006,R,ugm-3 (Ref.eq),59.96982,R,ugm-3,44.36733,R,ugm-3,136.31978,R,ugm-3
01-01-2020,02:00,43.479,R,ugm-3 (Ref.eq),,,,,,,,,
01-01-2020,03:00,22.223,R,ugm-3 (Ref.eq),51.21403,R,ugm-3,42.49828,R,ugm-3,121.02536,R,ugm-3
01-01-2020,04:00,19.324,R,ugm-3 (Ref.eq),20.98455,R,ugm-3,25.01195,R,ugm-3,57.18781,R,ugm-3
01-01-2020,05:00,16.425,R,ugm-3 (Ref.eq),15.84847,R,ugm-3,13.04876,R,ugm-3,37.34940,R,ugm-3
01-01-2020,06:00,13.527,R,ugm-3 (Ref.eq),20.03070,R,ugm-3,18.60563,R,ugm-3,49.31894,R,ugm-3
01-01-2020,07:00,19.324,R,ugm-3 (Ref.eq),8.87808,R,ugm-3,16.25558,R,ugm-3,29.86844,R,ugm-3
01-01-2020,08:00,19.324,R,ugm-3 (Ref.eq),15.62835,R,ugm-3,17.87484,R,ugm-3,41.83798,R,ugm-3
01-01-2020,09:00,24.155,R,ugm-3 (Ref.eq),37.08982,R,ugm-3,32.40257,R,ugm-3,89.27283,R,ugm-3
01-01-2020,10:00,21.256,R,ugm-3 (Ref.eq),41.63892,R,ugm-3,35.84532,R,ugm-3,99.69077,R,ugm-3
01-01-2020,11:00,28.020,R,ugm-3 (Ref.eq),46.73831,R,ugm-3,38.22263,R,ugm-3,109.88704,R,ugm-3
01-01-2020,12:00,21.256,R,ugm-3 (Ref.eq),56.90041,R,ugm-3,35.99587,R,ugm-3,123.24195,R,ugm-3
01-01-2020,13:00,26.087,R,ugm-3 (Ref.eq),40.68507,R,ugm-3,34.31547,R,ugm-3,96.69838,R,ugm-3
01-01-2020,14:00,20.290,R,ugm-3 (Ref.eq),27.11115,R,ugm-3,31.35568,R,ugm-3,72.92554,R,ugm-3
01-01-2020,15:00,16.425,R,ugm-3 (Ref.eq),28.87210,R,ugm-3,22.72626,R,ugm-3,66.99618,R,ugm-3
01-01-2020,16:00,17.392,R,ugm-3 (Ref.eq),33.20107,R,ugm-3,29.99763,R,ugm-3,80.90523,R,ugm-3
01-01-2020,17:00,14.493,R,ugm-3 (Ref.eq),31.03659,R,ugm-3,29.76994,R,ugm-3,77.35870,R,ugm-3
01-01-2020,18:00,22.223,R,ugm-3 (Ref.eq),23.69933,R,ugm-3,28.05323,R,ugm-3,64.39170,R,ugm-3
01-01-2020,19:00,24.155,R,ugm-3 (Ref.eq),37.34662,R,ugm-3,44.69874,R,ugm-3,101.96276,R,ugm-3
01-01-2020,20:00,26.087,R,ugm-3 (Ref.eq),53.12172,R,ugm-3,60.68614,R,ugm-3,142.13830,R,ugm-3
01-01-2020,21:00,23.189,R,ugm-3 (Ref.eq),49.56315,R,ugm-3,58.21825,R,ugm-3,134.21403,R,ugm-3
01-01-2020,22:00,27.054,R,ugm-3 (Ref.eq),18.37982,R,ugm-3,32.88483,R,ugm-3,61.06683,R,ugm-3
01-01-2020,23:00,26.087,R,ugm-3 (Ref.eq),88.19379,R,ugm-3,71.41224,R,ugm-3,206.64083,R,ugm-3
01-01-2020,24:00,4.831,R,ugm-3 (Ref.eq),19.77390,R,ugm-3,24.26377,R,ugm-3,54.58333,R,ugm-3
02-01-2020,01:00,9.662,R,ugm-3 (Ref.eq),3.86742,R,ugm-3,10.63215,R,ugm-3,16.56211,R,ugm-3
02-01-2020,02:00,7.730,R,ugm-3 (Ref.eq),,,,,,,,,
02-01-2020,03:00,6.763,R,ugm-3 (Ref.eq),7.89395,R,ugm-3,13.73745,R,ugm-3,25.84133,R,ugm-3
02-01-2020,04:00,10.628,R,ugm-3 (Ref.eq),2.57012,R,ugm-3,8.53624,R,ugm-3,12.47704,R,ugm-3
02-01-2020,05:00,5.797,R,ugm-3 (Ref.eq),4.36921,R,ugm-3,10.76850,R,ugm-3,17.46785,R,ugm-3
02-01-2020,06:00,4.831,R,ugm-3 (Ref.eq),15.82461,R,ugm-3,20.32056,R,ugm-3,44.58462,R,ugm-3
02-01-2020,07:00,2.899,R,ugm-3 (Ref.eq),19.27591,R,ugm-3,25.84206,R,ugm-3,55.39805,R,ugm-3
02-01-2020,08:00,2.899,R,ugm-3 (Ref.eq),24.34273,R,ugm-3,24.56112,R,ugm-3,61.88611,R,ugm-3
02-01-2020,09:00,5.797,R,ugm-3 (Ref.eq),18.90875,R,ugm-3,20.19424,R,ugm-3,49.18726,R,ugm-3
02-01-2020,10:00,5.797,R,ugm-3 (Ref.eq),31.90623,R,ugm-3,25.82912,R,ugm-3,74.75132,R,ugm-3
02-01-2020,11:00,6.763,R,ugm-3 (Ref.eq),21.62574,R,ugm-3,25.12263,R,ugm-3,58.28163,R,ugm-3
02-01-2020,12:00,6.763,R,ugm-3 (Ref.eq),29.40954,R,ugm-3,18.56663,R,ugm-3,63.66062,R,ugm-3
02-01-2020,13:00,4.831,R,ugm-3 (Ref.eq),29.77670,R,ugm-3,27.20894,R,ugm-3,72.86590,R,ugm-3
02-01-2020,14:00,8.696,R,ugm-3 (Ref.eq),33.77874,R,ugm-3,40.81400,R,ugm-3,92.60735,R,ugm-3
02-01-2020,15:00,8.696,R,ugm-3 (Ref.eq),47.36367,R,ugm-3,39.83642,R,ugm-3,112.45970,R,ugm-3
02-01-2020,16:00,7.730,R,ugm-3 (Ref.eq),51.03528,R,ugm-3,52.56181,R,ugm-3,130.81481,R,ugm-3
02-01-2020,17:00,5.797,R,ugm-3 (Ref.eq),52.46720,R,ugm-3,46.87265,R,ugm-3,127.32124,R,ugm-3
02-01-2020,18:00,5.797,R,ugm-3 (Ref.eq),36.31215,R,ugm-3,38.81491,R,ugm-3,94.49277,R,ugm-3
02-01-2020,19:00,8.696,R,ugm-3 (Ref.eq),21.84604,R,ugm-3,30.38565,R,ugm-3,63.88243,R,ugm-3
02-01-2020,20:00,6.763,R,ugm-3 (Ref.eq),13.84194,R,ugm-3,20.64338,R,ugm-3,41.86739,R,ugm-3
02-01-2020,21:00,5.797,R,ugm-3 (Ref.eq),11.41869,R,ugm-3,15.43098,R,ugm-3,32.93938,R,ugm-3
02-01-2020,22:00,4.831,R,ugm-3 (Ref.eq),9.32587,R,ugm-3,14.97998,R,ugm-3,29.27945,R,ugm-3
02-01-2020,23:00,21.256,R,ugm-3 (Ref.eq),4.91995,R,ugm-3,10.81130,R,ugm-3,18.35511,R,ugm-3
02-01-2020,24:00,27.054,R,ugm-3 (Ref.eq),3.01071,R,ugm-3,8.35976,R,ugm-3,12.97612,R,ugm-3
03-01-2020,01:00,24.155,R,ugm-3 (Ref.eq),2.59670,R,ugm-3,10.15053,R,ugm-3,14.13208,R,ugm-3
03-01-2020,02:00,17.392,R,ugm-3 (Ref.eq),,,,,,,,,
03-01-2020,03:00,16.425,R,ugm-3 (Ref.eq),7.12868,R,ugm-3,17.03771,R,ugm-3,27.96820,R,ugm-3
03-01-2020,04:00,11.594,R,ugm-3 (Ref.eq),4.55648,R,ugm-3,10.54912,R,ugm-3,17.53562,R,ugm-3
03-01-2020,05:00,10.628,R,ugm-3 (Ref.eq),2.71919,R,ugm-3,6.20773,R,ugm-3,10.37709,R,ugm-3
03-01-2020,06:00,10.628,R,ugm-3 (Ref.eq),6.02631,R,ugm-3,9.51624,R,ugm-3,18.75645,R,ugm-3
03-01-2020,07:00,9.662,R,ugm-3 (Ref.eq),15.10252,R,ugm-3,19.68331,R,ugm-3,42.84018,R,ugm-3
03-01-2020,08:00,14.493,R,ugm-3 (Ref.eq),67.64898,R,ugm-3,80.61896,R,ugm-3,184.34596,R,ugm-3
03-01-2020,09:00,14.493,R,ugm-3 (Ref.eq),110.64155,R,ugm-3,77.40443,R,ugm-3,247.05244,R,ugm-3
03-01-2020,10:00,16.425,R,ugm-3 (Ref.eq),101.82256,R,ugm-3,91.42612,R,ugm-3,247.55187,R,ugm-3
03-01-2020,11:00,18.358,R,ugm-3 (Ref.eq),80.69374,R,ugm-3,68.27524,R,ugm-3,192.00392,R,ugm-3
03-01-2020,12:00,12.561,R,ugm-3 (Ref.eq),79.59136,R,ugm-3,65.80359,R,ugm-3,187.84198,R,ugm-3
03-01-2020,13:00,18.358,R,ugm-3 (Ref.eq),51.22362,R,ugm-3,54.64012,R,ugm-3,133.18191,R,ugm-3
03-01-2020,14:00,21.256,R,ugm-3 (Ref.eq),88.26337,R,ugm-3,43.12848,R,ugm-3,178.46375,R,ugm-3
03-01-2020,15:00,30.918,R,ugm-3 (Ref.eq),78.12153,R,ugm-3,61.45370,R,ugm-3,181.23838,R,ugm-3
03-01-2020,16:00,28.020,R,ugm-3 (Ref.eq),92.30540,R,ugm-3,80.27039,R,ugm-3,221.80337,R,ugm-3
03-01-2020,17:00,28.986,R,ugm-3 (Ref.eq),78.89319,R,ugm-3,57.10743,R,ugm-3,178.07531,R,ugm-3
03-01-2020,18:00,27.054,R,ugm-3 (Ref.eq),76.50472,R,ugm-3,62.65645,R,ugm-3,179.96205,R,ugm-3
03-01-2020,19:00,16.425,R,ugm-3 (Ref.eq),43.76423,R,ugm-3,57.86481,R,ugm-3,124.96902,R,ugm-3
03-01-2020,20:00,18.358,R,ugm-3 (Ref.eq),23.99500,R,ugm-3,43.06184,R,ugm-3,79.85365,R,ugm-3
03-01-2020,21:00,8.696,R,ugm-3 (Ref.eq),14.11038,R,ugm-3,18.70740,R,ugm-3,40.34302,R,ugm-3
03-01-2020,22:00,10.628,R,ugm-3 (Ref.eq),14.29411,R,ugm-3,15.48459,R,ugm-3,37.40192,R,ugm-3
03-01-2020,23:00,9.662,R,ugm-3 (Ref.eq),15.54347,R,ugm-3,19.50663,R,ugm-3,43.33961,R,ugm-3
03-01-2020,24:00,12.561,R,ugm-3 (Ref.eq),13.48570,R,ugm-3,15.55879,R,ugm-3,36.23658,R,ugm-3
04-01-2020,01:00,10.628,R,ugm-3 (Ref.eq),6.03119,R,ugm-3,10.66958,R,ugm-3,19.91727,R,ugm-3
04-01-2020,02:00,5.797,R,ugm-3 (Ref.eq),,,,,,,,,
04-01-2020,03:00,4.831,R,ugm-3 (Ref.eq),3.60400,R,ugm-3,3.80322,R,ugm-3,9.32928,R,ugm-3
04-01-2020,04:00,3.865,R,ugm-3 (Ref.eq),4.00853,R,ugm-3,3.29401,R,ugm-3,9.44034,R,ugm-3
04-01-2020,05:00,2.899,R,ugm-3 (Ref.eq),1.58135,R,ugm-3,0.96272,R,ugm-3,3.38742,R,ugm-3
04-01-2020,06:00,4.831,R,ugm-3 (Ref.eq),1.39747,R,ugm-3,0.85594,R,ugm-3,2.99870,R,ugm-3
04-01-2020,07:00,1.932,R,ugm-3 (Ref.eq),3.67755,R,ugm-3,5.96723,R,ugm-3,11.60607,R,ugm-3
04-01-2020,08:00,0.966,R,ugm-3 (Ref.eq),12.54046,R,ugm-3,16.08955,R,ugm-3,35.31798,R,ugm-3
04-01-2020,09:00,4.831,R,ugm-3 (Ref.eq),26.73582,R,ugm-3,21.08978,R,ugm-3,62.08413,R,ugm-3
04-01-2020,10:00,8.696,R,ugm-3 (Ref.eq),45.01326,R,ugm-3,46.43046,R,ugm-3,115.44982,R,ugm-3
04-01-2020,11:00,9.662,R,ugm-3 (Ref.eq),46.55783,R,ugm-3,46.61659,R,ugm-3,118.00427,R,ugm-3
04-01-2020,12:00,9.662,R,ugm-3 (Ref.eq),37.95236,R,ugm-3,51.64835,R,ugm-3,109.84115,R,ugm-3
04-01-2020,13:00,6.763,R,ugm-3 (Ref.eq),46.19008,R,ugm-3,34.18612,R,ugm-3,105.00992,R,ugm-3
04-01-2020,14:00,10.628,R,ugm-3 (Ref.eq),45.93265,R,ugm-3,48.96348,R,ugm-3,119.39255,R,ugm-3
04-01-2020,15:00,12.561,R,ugm-3 (Ref.eq),67.51989,R,ugm-3,66.95241,R,ugm-3,170.48146,R,ugm-3
04-01-2020,16:00,10.628,R,ugm-3 (Ref.eq),68.21862,R,ugm-3,72.26714,R,ugm-3,176.86757,R,ugm-3
04-01-2020,17:00,14.493,R,ugm-3 (Ref.eq),94.07183,R,ugm-3,89.82348,R,ugm-3,234.06493,R,ugm-3
04-01-2020,18:00,21.256,R,ugm-3 (Ref.eq),79.54549,R,ugm-3,69.39322,R,ugm-3,191.36127,R,ugm-3
04-01-2020,19:00,14.493,R,ugm-3 (Ref.eq),43.02738,R,ugm-3,52.08540,R,ugm-3,118.05980,R,ugm-3
04-01-2020,20:00,8.696,R,ugm-3 (Ref.eq),24.67639,R,ugm-3,32.63277,R,ugm-3,70.46937,R,ugm-3
04-01-2020,21:00,11.594,R,ugm-3 (Ref.eq),24.12475,R,ugm-3,29.25821,R,ugm-3,66.24898,R,ugm-3
04-01-2020,22:00,9.662,R,ugm-3 (Ref.eq),13.90115,R,ugm-3,22.66608,R,ugm-3,43.98089,R,ugm-3
04-01-2020,23:00,6.763,R,ugm-3 (Ref.eq),12.13593,R,ugm-3,17.26513,R,ugm-3,35.87330,R,ugm-3
04-01-2020,24:00,5.797,R,ugm-3 (Ref.eq),8.53193,R,ugm-3,14.68361,R,ugm-3,27.76571,R,ugm-3
05-01-2020,01:00,4.831,R,ugm-3 (Ref.eq),5.88885,R,ugm-3,14.16193,R,ugm-3,23.19137,R,ugm-3
05-01-2020,02:00,5.797,R,ugm-3 (Ref.eq),,,,,,,,,
05-01-2020,03:00,3.865,R,ugm-3 (Ref.eq),2.24512,R,ugm-3,8.61630,R,ugm-3,12.05877,R,ugm-3
05-01-2020,04:00,3.865,R,ugm-3 (Ref.eq),1.43541,R,ugm-3,4.68980,R,ugm-3,6.89073,R,ugm-3
05-01-2020,05:00,2.899,R,ugm-3 (Ref.eq),1.95068,R,ugm-3,6.01140,R,ugm-3,9.00240,R,ugm-3
05-01-2020,06:00,1.932,R,ugm-3 (Ref.eq),2.94442,R,ugm-3,6.87721,R,ugm-3,11.39193,R,ugm-3
05-01-2020,07:00,4.831,R,ugm-3 (Ref.eq),5.18955,R,ugm-3,9.15848,R,ugm-3,17.11568,R,ugm-3
05-01-2020,08:00,2.899,R,ugm-3 (Ref.eq),7.83953,R,ugm-3,14.31992,R,ugm-3,26.34036,R,ugm-3
05-01-2020,09:00,0.966,R,ugm-3 (Ref.eq),9.79021,R,ugm-3,10.10637,R,ugm-3,25.11781,R,ugm-3
05-01-2020,10:00,0.000,R,ugm-3 (Ref.eq),10.56312,R,ugm-3,15.47856,R,ugm-3,31.67512,R,ugm-3
05-01-2020,11:00,0.966,R,ugm-3 (Ref.eq),13.06588,R,ugm-3,17.86493,R,ugm-3,37.89900,R,ugm-3
05-01-2020,12:00,3.865,R,ugm-3 (Ref.eq),15.53183,R,ugm-3,25.25350,R,ugm-3,49.06864,R,ugm-3
05-01-2020,13:00,3.865,R,ugm-3 (Ref.eq),22.30401,R,ugm-3,25.26130,R,ugm-3,59.46030,R,ugm-3
05-01-2020,14:00,4.831,R,ugm-3 (Ref.eq),33.67684,R,ugm-3,43.61052,R,ugm-3,95.24763,R,ugm-3
05-01-2020,15:00,9.662,R,ugm-3 (Ref.eq),32.64630,R,ugm-3,28.46399,R,ugm-3,78.52094,R,ugm-3
05-01-2020,16:00,6.763,R,ugm-3 (Ref.eq),40.15458,R,ugm-3,35.56753,R,ugm-3,97.13702,R,ugm-3
05-01-2020,17:00,10.628,R,ugm-3 (Ref.eq),37.02613,R,ugm-3,40.03100,R,ugm-3,96.80360,R,ugm-3
05-01-2020,18:00,7.730,R,ugm-3 (Ref.eq),23.92344,R,ugm-3,28.00182,R,ugm-3,64.68392,R,ugm-3
05-01-2020,19:00,11.594,R,ugm-3 (Ref.eq),21.19985,R,ugm-3,27.39889,R,ugm-3,59.90487,R,ugm-3
05-01-2020,20:00,7.730,R,ugm-3 (Ref.eq),18.84431,R,ugm-3,28.73228,R,ugm-3,57.62648,R,ugm-3
05-01-2020,21:00,7.730,R,ugm-3 (Ref.eq),15.34781,R,ugm-3,19.75635,R,ugm-3,43.28933,R,ugm-3
05-01-2020,22:00,4.831,R,ugm-3 (Ref.eq),9.20132,R,ugm-3,18.12232,R,ugm-3,32.23082,R,ugm-3
05-01-2020,23:00,1.932,R,ugm-3 (Ref.eq),6.88259,R,ugm-3,10.11902,R,ugm-3,20.67218,R,ugm-3
05-01-2020,24:00,3.865,R,ugm-3 (Ref.eq),4.19580,R,ugm-3,6.23657,R,ugm-3,12.67005,R,ugm-3
06-01-2020,01:00,2.899,R,ugm-3 (Ref.eq),3.87996,R,ugm-3,4.80195,R,ugm-3,10.75114,R,ugm-3
06-01-2020,02:00,3.865,R,ugm-3 (Ref.eq),,,,,,,,,
06-01-2020,03:00,1.932,R,ugm-3 (Ref.eq),0.81037,R,ugm-3,2.87254,R,ugm-3,4.11509,R,ugm-3
06-01-2020,04:00,0.000,R,ugm-3 (Ref.eq),1.36290,R,ugm-3,2.74827,R,ugm-3,4.83801,R,ugm-3
06-01-2020,05:00,0.966,R,ugm-3 (Ref.eq),1.73125,R,ugm-3,5.29759,R,ugm-3,7.95214,R,ugm-3
06-01-2020,06:00,1.932,R,ugm-3 (Ref.eq),3.13098,R,ugm-3,1.26065,R,ugm-3,6.06142,R,ugm-3
06-01-2020,07:00,6.763,R,ugm-3 (Ref.eq),15.91274,R,ugm-3,16.30684,R,ugm-3,40.70603,R,ugm-3
06-01-2020,08:00,14.493,R,ugm-3 (Ref.eq),25.78454,R,ugm-3,28.25205,R,ugm-3,67.78778,R,ugm-3
06-01-2020,09:00,19.324,R,ugm-3 (Ref.eq),36.39303,R,ugm-3,32.67259,R,ugm-3,88.47446,R,ugm-3
06-01-2020,10:00,11.594,R,ugm-3 (Ref.eq),38.34529,R,ugm-3,25.67530,R,ugm-3,84.47058,R,ugm-3
06-01-2020,11:00,7.730,R,ugm-3 (Ref.eq),31.42030,R,ugm-3,37.12761,R,ugm-3,85.30472,R,ugm-3
06-01-2020,12:00,9.662,R,ugm-3 (Ref.eq),52.34261,R,ugm-3,36.85572,R,ugm-3,117.11326,R,ugm-3
06-01-2020,13:00,9.662,R,ugm-3 (Ref.eq),71.71784,R,ugm-3,55.36073,R,ugm-3,165.32656,R,ugm-3
06-01-2020,14:00,13.527,R,ugm-3 (Ref.eq),69.32356,R,ugm-3,47.24273,R,ugm-3,153.53738,R,ugm-3
06-01-2020,15:00,13.527,R,ugm-3 (Ref.eq),52.85830,R,ugm-3,57.02973,R,ugm-3,138.07798,R,ugm-3
06-01-2020,16:00,10.628,R,ugm-3 (Ref.eq),66.22942,R,ugm-3,57.26991,R,ugm-3,158.82027,R,ugm-3
06-01-2020,17:00,14.493,R,ugm-3 (Ref.eq),89.28816,R,ugm-3,65.45577,R,ugm-3,202.36238,R,ugm-3
06-01-2020,18:00,19.324,R,ugm-3 (Ref.eq),97.20770,R,ugm-3,64.43452,R,ugm-3,213.48425,R,ugm-3
06-01-2020,19:00,28.020,R,ugm-3 (Ref.eq),108.47922,R,ugm-3,74.17789,R,ugm-3,240.51038,R,ugm-3
06-01-2020,20:00,23.189,R,ugm-3 (Ref.eq),50.46402,R,ugm-3,62.42479,R,ugm-3,139.80187,R,ugm-3
06-01-2020,21:00,21.256,R,ugm-3 (Ref.eq),41.14475,R,ugm-3,54.13674,R,ugm-3,117.22448,R,ugm-3
06-01-2020,22:00,25.121,R,ugm-3 (Ref.eq),28.65767,R,ugm-3,41.36358,R,ugm-3,85.30472,R,ugm-3
06-01-2020,23:00,26.087,R,ugm-3 (Ref.eq),78.31132,R,ugm-3,66.77170,R,ugm-3,186.84737,R,ugm-3
06-01-2020,24:00,20.290,R,ugm-3 (Ref.eq),42.47081,R,ugm-3,44.09573,R,ugm-3,109.21674,R,ugm-3
07-01-2020,01:00,17.392,R,ugm-3 (Ref.eq),9.24078,R,ugm-3,21.52011,R,ugm-3,35.68911,R,ugm-3
07-01-2020,02:00,19.324,R,ugm-3 (Ref.eq),,,,,,,,,
07-01-2020,03:00,14.493,R,ugm-3 (Ref.eq),4.57124,R,ugm-3,6.90294,R,ugm-3,13.91207,R,ugm-3
07-01-2020,04:00,10.628,R,ugm-3 (Ref.eq),2.24875,R,ugm-3,11.13181,R,ugm-3,14.57985,R,ugm-3
07-01-2020,05:00,14.493,R,ugm-3 (Ref.eq),2.28562,R,ugm-3,6.01129,R,ugm-3,9.51586,R,ugm-3
07-01-2020,06:00,16.425,R,ugm-3 (Ref.eq),3.72335,R,ugm-3,8.09173,R,ugm-3,13.80078,R,ugm-3
07-01-2020,07:00,13.527,R,ugm-3 (Ref.eq),6.34075,R,ugm-3,11.42401,R,ugm-3,21.14635,R,ugm-3
07-01-2020,08:00,17.392,R,ugm-3 (Ref.eq),21.19726,R,ugm-3,26.65212,R,ugm-3,59.15414,R,ugm-3
07-01-2020,09:00,20.290,R,ugm-3 (Ref.eq),24.77315,R,ugm-3,28.40345,R,ugm-3,66.38842,R,ugm-3
07-01-2020,10:00,6.763,R,ugm-3 (Ref.eq),38.74491,R,ugm-3,43.37437,R,ugm-3,102.78240,R,ugm-3
07-01-2020,11:00,6.763,R,ugm-3 (Ref.eq),25.25239,R,ugm-3,29.61631,R,ugm-3,68.33611,R,ugm-3
07-01-2020,12:00,6.763,R,ugm-3 (Ref.eq),24.33077,R,ugm-3,24.01776,R,ugm-3,61.32442,R,ugm-3
07-01-2020,13:00,5.797,R,ugm-3 (Ref.eq),20.93921,R,ugm-3,15.47295,R,ugm-3,47.57929,R,ugm-3
07-01-2020,14:00,5.797,R,ugm-3 (Ref.eq),21.86083,R,ugm-3,14.89455,R,ugm-3,48.41402,R,ugm-3
07-01-2020,15:00,4.831,R,ugm-3 (Ref.eq),21.82397,R,ugm-3,18.67951,R,ugm-3,52.14245,R,ugm-3
07-01-2020,16:00,2.899,R,ugm-3 (Ref.eq),27.83293,R,ugm-3,21.48592,R,ugm-3,64.16249,R,ugm-3
07-01-2020,17:00,4.831,R,ugm-3 (Ref.eq),26.46893,R,ugm-3,24.74597,R,ugm-3,65.33110,R,ugm-3
07-01-2020,18:00,10.628,R,ugm-3 (Ref.eq),22.45067,R,ugm-3,18.83154,R,ugm-3,53.25542,R,ugm-3
07-01-2020,19:00,19.324,R,ugm-3 (Ref.eq),16.10992,R,ugm-3,18.64849,R,ugm-3,43.35002,R,ugm-3
07-01-2020,20:00,24.155,R,ugm-3 (Ref.eq),9.40053,R,ugm-3,13.35456,R,ugm-3,27.76850,R,ugm-3
07-01-2020,21:00,30.918,R,ugm-3 (Ref.eq),7.59415,R,ugm-3,9.66910,R,ugm-3,21.31330,R,ugm-3
07-01-2020,22:00,32.851,R,ugm-3 (Ref.eq),4.60810,R,ugm-3,5.45521,R,ugm-3,12.52087,R,ugm-3
07-01-2020,23:00,17.392,R,ugm-3 (Ref.eq),5.64032,R,ugm-3,3.76121,R,ugm-3,12.40957,R,ugm-3
07-01-2020,24:00,19.324,R,ugm-3 (Ref.eq),2.13816,R,ugm-3,5.34702,R,ugm-3,8.62549,R,ugm-3
08-01-2020,01:00,16.425,R,ugm-3 (Ref.eq),1.08224,R,ugm-3,3.16682,R,ugm-3,4.82623,R,ugm-3
08-01-2020,02:00,17.392,R,ugm-3 (Ref.eq),,,,,,,,,
08-01-2020,03:00,13.527,R,ugm-3 (Ref.eq),1.36510,R,ugm-3,3.03011,R,ugm-3,5.12323,R,ugm-3
08-01-2020,04:00,16.425,R,ugm-3 (Ref.eq),2.21367,R,ugm-3,3.67803,R,ugm-3,7.07228,R,ugm-3
08-01-2020,05:00,21.256,R,ugm-3 (Ref.eq),3.91082,R,ugm-3,7.36843,R,ugm-3,13.36494,R,ugm-3
08-01-2020,06:00,16.425,R,ugm-3 (Ref.eq),5.12834,R,ugm-3,6.67102,R,ugm-3,14.53437,R,ugm-3
08-01-2020,07:00,19.324,R,ugm-3 (Ref.eq),19.29586,R,ugm-3,25.82225,R,ugm-3,55.40882,R,ugm-3
08-01-2020,08:00,21.256,R,ugm-3 (Ref.eq),50.80381,R,ugm-3,46.50723,R,ugm-3,124.40533,R,ugm-3
08-01-2020,09:00,30.918,R,ugm-3 (Ref.eq),80.65151,R,ugm-3,67.62179,R,ugm-3,191.28572,R,ugm-3
08-01-2020,10:00,38.648,R,ugm-3 (Ref.eq),84.56234,R,ugm-3,60.56722,R,ugm-3,190.22766,R,ugm-3
08-01-2020,11:00,36.716,R,ugm-3 (Ref.eq),53.93985,R,ugm-3,59.74138,R,ugm-3,142.44800,R,ugm-3
08-01-2020,12:00,41.547,R,ugm-3 (Ref.eq),61.83529,R,ugm-3,47.57953,R,ugm-3,142.39231,R,ugm-3
08-01-2020,13:00,37.682,R,ugm-3 (Ref.eq),70.80067,R,ugm-3,70.64208,R,ugm-3,179.20159,R,ugm-3
08-01-2020,14:00,38.648,R,ugm-3 (Ref.eq),63.23728,R,ugm-3,71.82559,R,ugm-3,168.78807,R,ugm-3
08-01-2020,15:00,32.851,R,ugm-3 (Ref.eq),79.24952,R,ugm-3,76.95514,R,ugm-3,198.46937,R,ugm-3
08-01-2020,16:00,50.242,R,ugm-3 (Ref.eq),129.46302,R,ugm-3,100.03218,R,ugm-3,298.53937,R,ugm-3
08-01-2020,17:00,50.242,R,ugm-3 (Ref.eq),166.39447,R,ugm-3,99.03630,R,ugm-3,354.17094,R,ugm-3
08-01-2020,18:00,62.803,R,ugm-3 (Ref.eq),347.91572,R,ugm-3,124.42589,R,ugm-3,657.88922,R,ugm-3
08-01-2020,19:00,85.026,R,ugm-3 (Ref.eq),291.39325,R,ugm-3,102.61370,R,ugm-3,549.41045,R,ugm-3
08-01-2020,20:00,90.823,R,ugm-3 (Ref.eq),284.82602,R,ugm-3,98.76150,R,ugm-3,535.48864,R,ugm-3
08-01-2020,21:00,85.026,R,ugm-3 (Ref.eq),249.99755,R,ugm-3,90.85274,R,ugm-3,474.17697,R,ugm-3
08-01-2020,22:00,69.566,R,ugm-3 (Ref.eq),218.48960,R,ugm-3,84.20094,R,ugm-3,419.21365,R,ugm-3
08-01-2020,23:00,65.702,R,ugm-3 (Ref.eq),210.81553,R,ugm-3,71.07548,R,ugm-3,394.32145,R,ugm-3
08-01-2020,24:00,45.411,R,ugm-3 (Ref.eq),131.49222,R,ugm-3,65.51317,R,ugm-3,267.13176,R,ugm-3
09-01-2020,01:00,28.020,R,ugm-3 (Ref.eq),48.10008,R,ugm-3,59.09887,R,ugm-3,132.85129,R,ugm-3
09-01-2020,02:00,21.256,R,ugm-3 (Ref.eq),,,,,,,,,
09-01-2020,03:00,2.899,R,ugm-3 (Ref.eq),9.82187,R,ugm-3,12.74739,R,ugm-3,27.80738,R,ugm-3
09-01-2020,04:00,0.966,R,ugm-3 (Ref.eq),7.16332,R,ugm-3,12.64431,R,ugm-3,23.62791,R,ugm-3
09-01-2020,05:00,0.000,R,ugm-3 (Ref.eq),3.95090,R,ugm-3,10.71563,R,ugm-3,16.77359,R,ugm-3
09-01-2020,06:00,2.899,R,ugm-3 (Ref.eq),7.27409,R,ugm-3,14.09053,R,ugm-3,25.24398,R,ugm-3
09-01-2020,07:00,7.730,R,ugm-3 (Ref.eq),24.33313,R,ugm-3,43.10265,R,ugm-3,80.41293,R,ugm-3
09-01-2020,08:00,8.696,R,ugm-3 (Ref.eq),89.09838,R,ugm-3,82.77849,R,ugm-3,219.39410,R,ugm-3
09-01-2020,09:00,14.493,R,ugm-3 (Ref.eq),117.93627,R,ugm-3,74.44869,R,ugm-3,255.28178,R,ugm-3
09-01-2020,10:00,25.121,R,ugm-3 (Ref.eq),220.91819,R,ugm-3,117.93981,R,ugm-3,456.67631,R,ugm-3
09-01-2020,11:00,25.121,R,ugm-3 (Ref.eq),210.91170,R,ugm-3,105.92131,R,ugm-3,429.31475,R,ugm-3
09-01-2020,12:00,19.324,R,ugm-3 (Ref.eq),165.05170,R,ugm-3,79.55402,R,ugm-3,332.62977,R,ugm-3
09-01-2020,13:00,12.561,R,ugm-3 (Ref.eq),124.80419,R,ugm-3,92.67275,R,ugm-3,284.03651,R,ugm-3
09-01-2020,14:00,9.662,R,ugm-3 (Ref.eq),60.18664,R,ugm-3,76.34263,R,ugm-3,168.62752,R,ugm-3
09-01-2020,15:00,12.561,R,ugm-3 (Ref.eq),79.20266,R,ugm-3,75.32687,R,ugm-3,196.76926,R,ugm-3
09-01-2020,16:00,30.918,R,ugm-3 (Ref.eq),190.60333,R,ugm-3,103.06739,R,ugm-3,395.32176,R,ugm-3
09-01-2020,17:00,25.121,R,ugm-3 (Ref.eq),102.28036,R,ugm-3,80.56597,R,ugm-3,237.39367,R,ugm-3
09-01-2020,18:00,26.087,R,ugm-3 (Ref.eq),92.23695,R,ugm-3,82.64709,R,ugm-3,224.07510,R,ugm-3
09-01-2020,19:00,42.513,R,ugm-3 (Ref.eq),162.98394,R,ugm-3,91.02775,R,ugm-3,340.93297,R,ugm-3
09-01-2020,20:00,42.513,R,ugm-3 (Ref.eq),144.26331,R,ugm-3,102.62437,R,ugm-3,323.82502,R,ugm-3
09-01-2020,21:00,29.952,R,ugm-3 (Ref.eq),60.81435,R,ugm-3,64.73644,R,ugm-3,157.98381,R,ugm-3
09-01-2020,22:00,25.121,R,ugm-3 (Ref.eq),58.63582,R,ugm-3,64.62179,R,ugm-3,154.52879,R,ugm-3
09-01-2020,23:00,22.223,R,ugm-3 (Ref.eq),15.32359,R,ugm-3,29.49978,R,ugm-3,52.99563,R,ugm-3
09-01-2020,24:00,13.527,R,ugm-3 (Ref.eq),8.52952,R,ugm-3,20.13441,R,ugm-3,33.21282,R,ugm-3
10-01-2020,01:00,11.594,R,ugm-3 (Ref.eq),6.79955,R,ugm-3,11.50847,R,ugm-3,21.93430,R,ugm-3
10-01-2020,02:00,11.594,R,ugm-3 (Ref.eq),,,,,,,,,
10-01-2020,03:00,9.662,R,ugm-3 (Ref.eq),7.53863,R,ugm-3,13.42373,R,ugm-3,24.98280,R,ugm-3
10-01-2020,04:00,9.662,R,ugm-3 (Ref.eq),4.61926,R,ugm-3,16.67320,R,ugm-3,23.75596,R,ugm-3
10-01-2020,05:00,11.594,R,ugm-3 (Ref.eq),12.78611,R,ugm-3,14.30013,R,ugm-3,33.90523,R,ugm-3
10-01-2020,06:00,9.662,R,ugm-3 (Ref.eq),13.56215,R,ugm-3,26.32657,R,ugm-3,47.12157,R,ugm-3
10-01-2020,07:00,16.425,R,ugm-3 (Ref.eq),46.00782,R,ugm-3,52.13903,R,ugm-3,122.68338,R,ugm-3
10-01-2020,08:00,17.392,R,ugm-3 (Ref.eq),122.57666,R,ugm-3,89.42770,R,ugm-3,277.37596,R,ugm-3
10-01-2020,09:00,30.918,R,ugm-3 (Ref.eq),343.48812,R,ugm-3,115.12693,R,ugm-3,641.80136,R,ugm-3
10-01-2020,10:00,32.851,R,ugm-3 (Ref.eq),333.80615,R,ugm-3,110.45459,R,ugm-3,622.28355,R,ugm-3
10-01-2020,11:00,31.885,R,ugm-3 (Ref.eq),264.88680,R,ugm-3,120.49218,R,ugm-3,526.64628,R,ugm-3
10-01-2020,12:00,26.087,R,ugm-3 (Ref.eq),197.96297,R,ugm-3,94.40127,R,ugm-3,397.94027,R,ugm-3
10-01-2020,13:00,19.324,R,ugm-3 (Ref.eq),71.46918,R,ugm-3,72.37721,R,ugm-3,181.96175,R,ugm-3
10-01-2020,14:00,16.425,R,ugm-3 (Ref.eq),75.16459,R,ugm-3,52.37935,R,ugm-3,167.63011,R,ugm-3
10-01-2020,15:00,26.087,R,ugm-3 (Ref.eq),90.05708,R,ugm-3,66.01494,R,ugm-3,204.10053,R,ugm-3
10-01-2020,16:00,17.392,R,ugm-3 (Ref.eq),67.66291,R,ugm-3,50.77694,R,ugm-3,154.52529,R,ugm-3
10-01-2020,17:00,12.561,R,ugm-3 (Ref.eq),48.81633,R,ugm-3,37.90651,R,ugm-3,112.75718,R,ugm-3
10-01-2020,18:00,13.527,R,ugm-3 (Ref.eq),33.44344,R,ugm-3,31.19747,R,ugm-3,82.47669,R,ugm-3
10-01-2020,19:00,14.493,R,ugm-3 (Ref.eq),27.08734,R,ugm-3,28.00583,R,ugm-3,69.53917,R,ugm-3
10-01-2020,20:00,9.662,R,ugm-3 (Ref.eq),16.85106,R,ugm-3,18.21656,R,ugm-3,44.05449,R,ugm-3
10-01-2020,21:00,9.662,R,ugm-3 (Ref.eq),9.68197,R,ugm-3,11.86604,R,ugm-3,26.71152,R,ugm-3
10-01-2020,22:00,16.425,R,ugm-3 (Ref.eq),5.35834,R,ugm-3,14.42465,R,ugm-3,22.64066,R,ugm-3
10-01-2020,23:00,12.561,R,ugm-3 (Ref.eq),9.34938,R,ugm-3,5.79571,R,ugm-3,20.13123,R,ugm-3
10-01-2020,24:00,16.425,R,ugm-3 (Ref.eq),2.88242,R,ugm-3,4.61431,R,ugm-3,9.03396,R,ugm-3
11-01-2020,01:00,9.662,R,ugm-3 (Ref.eq),1.72591,R,ugm-3,3.90132,R,ugm-3,6.54769,R,ugm-3
11-01-2020,02:00,9.662,R,ugm-3 (Ref.eq),,,,,,,,,
11-01-2020,03:00,8.696,R,ugm-3 (Ref.eq),2.10808,R,ugm-3,7.42625,R,ugm-3,10.65859,R,ugm-3
11-01-2020,04:00,4.831,R,ugm-3 (Ref.eq),1.33142,R,ugm-3,1.58579,R,ugm-3,3.62727,R,ugm-3
11-01-2020,05:00,4.831,R,ugm-3 (Ref.eq),1.33142,R,ugm-3,2.14383,R,ugm-3,4.18531,R,ugm-3
11-01-2020,06:00,2.899,R,ugm-3 (Ref.eq),1.36840,R,ugm-3,2.92419,R,ugm-3,5.02237,R,ugm-3
11-01-2020,07:00,0.000,R,ugm-3 (Ref.eq),4.54901,R,ugm-3,8.20367,R,ugm-3,15.17872,R,ugm-3
11-01-2020,08:00,0.000,R,ugm-3 (Ref.eq),6.84201,R,ugm-3,9.04051,R,ugm-3,19.53145,R,ugm-3
11-01-2020,09:00,0.966,R,ugm-3 (Ref.eq),11.94578,R,ugm-3,13.71497,R,ugm-3,32.03157,R,ugm-3
11-01-2020,10:00,3.865,R,ugm-3 (Ref.eq),14.05386,R,ugm-3,12.88220,R,ugm-3,34.43115,R,ugm-3
11-01-2020,11:00,4.831,R,ugm-3 (Ref.eq),20.34111,R,ugm-3,16.13264,R,ugm-3,47.32190,R,ugm-3
11-01-2020,12:00,8.696,R,ugm-3 (Ref.eq),44.08473,R,ugm-3,39.99473,R,ugm-3,107.59036,R,ugm-3
11-01-2020,13:00,6.763,R,ugm-3 (Ref.eq),52.44307,R,ugm-3,49.89106,R,ugm-3,130.30265,R,ugm-3
11-01-2020,14:00,9.662,R,ugm-3 (Ref.eq),45.78598,R,ugm-3,38.11163,R,ugm-3,108.31582,R,ugm-3
11-01-2020,15:00,8.696,R,ugm-3 (Ref.eq),41.08903,R,ugm-3,39.11925,R,ugm-3,102.12156,R,ugm-3
11-01-2020,16:00,7.730,R,ugm-3 (Ref.eq),31.91705,R,ugm-3,45.98404,R,ugm-3,94.92283,R,ugm-3
11-01-2020,17:00,9.662,R,ugm-3 (Ref.eq),40.27539,R,ugm-3,25.74614,R,ugm-3,87.50088,R,ugm-3
11-01-2020,18:00,11.594,R,ugm-3 (Ref.eq),21.52459,R,ugm-3,26.92973,R,ugm-3,59.93364,R,ugm-3
11-01-2020,19:00,18.358,R,ugm-3 (Ref.eq),20.67396,R,ugm-3,29.85233,R,ugm-3,61.55196,R,ugm-3
11-01-2020,20:00,14.493,R,ugm-3 (Ref.eq),19.26858,R,ugm-3,23.13436,R,ugm-3,52.67910,R,ugm-3
11-01-2020,21:00,13.527,R,ugm-3 (Ref.eq),14.64560,R,ugm-3,26.59556,R,ugm-3,49.05183,R,ugm-3
11-01-2020,22:00,20.290,R,ugm-3 (Ref.eq),13.20323,R,ugm-3,20.38074,R,ugm-3,40.62541,R,ugm-3
11-01-2020,23:00,12.561,R,ugm-3 (Ref.eq),10.83626,R,ugm-3,14.85816,R,ugm-3,31.47353,R,ugm-3